#timestamp,LO_Frequency,Hit,StdDev 
1594969215.8,286046998.6,N
1594969235.6,286046998.2,N
1594969255.5,286046999.1,N
1594969275.3,286046998.3,N
1594969295.1,286046998.8,N
1594969315.9,286046998.5,N
1594969335.7,286047000.6,N
1594969355.6,286047001.1,N
1594969375.4,286047000.4,N
1594969395.2,286047001.0,N
1594969415.1,286047000.3,N
1594969416.0,286047000.3,N
1594969435.8,286047001.0,N
1594969455.6,286047001.0,N
1594969475.5,286047001.1,N
1594969495.3,286047000.1,N
1594969515.2,286046999.7,N
1594969535.9,286046999.8,N
1594969555.7,286046999.7,N
1594969575.6,286047001.5,N
1594969595.4,286047002.2,N
1594969615.3,286047002.4,N
1594969635.1,286047002.6,N
1594969636.0,286047002.6,N
1594969655.8,286047001.4,N
1594969675.7,286047002.1,N
1594969695.5,286047002.5,N
1594969715.3,286047000.2,N
1594969735.2,286047000.2,N
1594969755.0,286047000.5,N
1594969755.9,286047000.5,N
1594969775.8,286047002.7,N
1594969795.6,286047002.6,N
1594969815.4,286047004.0,Y
1594969835.3,286047004.1,P
1594969855.1,286047000.9,N
1594969875.9,286047000.1,N
1594969895.7,286047000.5,N
1594969915.5,286047000.5,N
1594969935.4,286047000.9,N
1594969955.2,286047000.9,N
1594969975.0,286047000.8,N
1594969975.9,286047000.8,N
1594969995.8,286047001.2,N
1594970015.6,286047000.7,N
1594970035.5,286046999.7,N
1594970055.3,286047000.0,N
1594970075.1,286047002.2,N
1594970095.9,286047001.9,N
1594970115.7,286047001.7,N
1594970135.6,286047002.8,N
1594970155.4,286047006.0,Y
1594970175.2,286047003.9,P
1594970195.1,286047003.2,N
1594970196.0,286047003.2,N
1594970215.8,286047004.7,Y
1594970235.7,286047004.0,P
1594970255.5,286047006.0,P
1594970275.3,286047003.1,N
1594970295.2,286047002.9,N
1594970315.0,286047003.7,Y
1594970315.9,286047003.7,P
1594970335.8,286046997.7,P
1594970355.6,286046997.7,N
1594970375.4,286046997.5,N
1594970395.3,286046998.0,N
1594970415.1,286046997.6,N
1594970435.8,286046995.3,N
1594970455.7,286046993.7,N
1594970475.5,286046994.1,N
1594970495.4,286046994.5,N
1594970515.2,286046994.5,N
1594970535.0,286046991.7,N
1594970535.9,286046991.7,N
1594970555.8,286046992.4,N
1594970575.6,286046992.3,N
1594970595.5,286046991.8,N
1594970615.3,286046992.2,N
1594970635.1,286046994.3,N
1594970655.9,286046997.8,N
1594970675.7,286046995.5,N
1594970695.5,286046999.5,N
1594970715.4,286047000.4,N
1594970735.2,286047000.2,N
1594970755.1,286047001.2,N
1594970756.0,286047001.2,N
1594970775.8,286046998.6,N
1594970795.7,286046999.6,N
1594970815.5,286046994.9,N
1594970835.3,286046995.8,N
1594970855.2,286046993.4,N
1594970875.0,286046995.8,N
1594970875.9,286046995.8,N
1594970895.7,286046993.6,N
1594970915.6,286046994.2,N
1594970935.4,286046994.0,N
1594970955.3,286046993.9,N
1594970975.1,286046993.6,N
1594970976.0,286046993.6,N
1594970995.8,286046994.2,N
1594971015.7,286046997.5,N
1594971035.5,286046997.4,N
1594971055.4,286046995.5,N
1594971075.2,286046996.3,N
1594971095.0,286046993.4,N
1594971095.9,286046993.4,N
1594971115.8,286046993.6,N
1594971135.6,286046992.2,N
1594971155.5,286046991.7,Y
1594971175.3,286046999.4,P
1594971195.1,286046997.1,N
1594971215.9,286046997.3,N
1594971235.7,286046997.2,N
1594971255.6,286046997.6,N
1594971275.4,286046995.2,Y
1594971295.2,286047000.6,P
1594971315.1,286047001.1,N
1594971316.0,286047001.1,N
1594971335.8,286046996.9,N
1594971355.7,286046998.4,N
1594971375.5,286046996.9,N
1594971395.3,286046998.8,N
1594971415.2,286046999.2,N
1594971435.0,286046996.7,N
1594971435.9,286046996.7,N
1594971455.8,286046998.5,N
1594971475.6,286046999.0,N
1594971495.4,286046998.1,N
1594971515.3,286047000.9,N
1594971535.1,286047000.6,N
1594971555.9,286046998.5,N
1594971575.7,286046998.3,N
1594971595.5,286047000.2,N
1594971615.4,286047000.2,N
1594971635.2,286047000.5,N
1594971655.0,286047000.4,N
1594971656.0,286047000.4,N
1594971675.8,286047000.5,N
1594971695.6,286046999.8,N
1594971715.5,286047000.9,N
1594971735.3,286046998.1,N
1594971755.1,286046999.5,N
1594971775.9,286046999.1,N
1594971795.7,286046996.6,N
1594971815.6,286046999.1,N
1594971835.4,286046996.7,N
1594971855.2,286046999.3,N
1594971875.1,286046999.0,N
1594971876.0,286046999.0,N
1594971895.8,286046998.6,N
1594971915.7,286046996.5,N
1594971935.5,286046998.9,N
1594971955.4,286046998.8,N
1594971975.2,286046999.2,N
1594971995.0,286046999.6,N
1594971995.9,286046999.6,N
1594972015.8,286046999.0,N
1594972035.6,286046998.9,N
1594972055.4,286047001.2,N
1594972075.3,286047000.4,N
1594972095.1,286047001.1,N
1594972115.9,286047001.1,N
1594972135.7,286047001.2,N
1594972155.6,286047000.7,N
1594972175.4,286047001.0,N
1594972195.2,286046998.3,N
1594972215.1,286047001.2,N
1594972216.0,286047001.2,N
1594972235.8,286047000.8,N
1594972255.6,286046999.7,N
1594972275.5,286047001.0,N
1594972295.3,286047000.7,N
1594972315.2,286047001.0,N
1594972335.9,286047000.7,N
1594972355.7,286046998.4,N
1594972375.6,286046998.2,N
1594972395.4,286046999.0,N
1594972415.3,286046998.5,N
1594972435.1,286047001.0,N
1594972436.0,286047001.0,N
1594972455.8,286046999.0,N
1594972475.7,286046998.4,N
1594972495.5,286047000.6,N
1594972515.3,286047000.4,N
1594972535.2,286046999.9,N
1594972555.0,286047000.4,N
1594972555.9,286047000.4,N
1594972575.8,286047002.7,N
1594972595.6,286047002.2,N
1594972615.5,286047004.4,Y
1594972635.3,286047002.5,P
1594972655.2,286047000.1,N
1594972675.9,286047000.8,N
1594972695.7,286047000.0,N
1594972715.6,286047002.7,N
1594972735.4,286047002.4,N
1594972755.2,286047000.1,N
1594972775.1,286047000.4,N
1594972776.0,286047000.4,N
1594972795.8,286047000.6,N
